www.pogodaiklimat.ru

Погода и климат >> Архив погоды >> Аргентина >> Буэнос-Айрес аэропорт


АРХИВ ПОГОДЫ в Буэнос-Айресе аэропорт

Время (UTC), дата Ветер
(напр.,м/с)
 
Видим.   Явления Облачность Т
(С)
Тd
(С)
f
(%)
Тe
(С)
Тes
(С)
Комфортность P
(гПа)
Po
(гПа)
Тmin
(С)
Tmax
(С)
R
(мм)
R24
(мм)
S
(см)
18 11.07 ЮВ 4 10 км 10/0
[Ac As Cs]
+15.6 +10.3 71 +15 +16 тепло 1012.4 1011.7
21 11.07 Ю 6 8000 м гроза, ливневой дождь 10/3 1500 м
[Cb cap Ac As Cs]
+14.0 +11.2 83 +12 +12 по сезону 1012.1 1011.4
00 12.07 Ю 4 6000 м в посл. час гроза {дождь} туман 10/1 1500 м
[Cb cap Ac As]
+14.0 +13.3 96 +12 +12 тепло 1012.4 1011.7 +10.9 +16.6 7
03 12.07 В 4 6000 м слаб. дождь {гроза} туман 10/1 120 м
[St Ac As]
+14.6 +14.4 99 +13 +13 тепло 1011.4 1010.6
06 12.07 В 5 2000 м гроза, ливневой дождь 10/10 120 м
[Cb cap]
+13.8 +13.8 100 +12 +12 тепло 1011.5 1010.8 38
09 12.07 ЮВ 4 10 км {гроза} 10/10 240 м
[St]
+15.0 +14.1 94 +14 +14 тепло 1011.6 1010.9
12 12.07 Ю 2 1600 м слаб. морось {гроза} туман 10/10 150 м
[St]
+13.2 +12.5 96 +12 +12 тепло 1013.5 1012.8 +12.8 +15.6 13
15 12.07 Ю 3 8000 м дымка 10/8 180 м
[St Ac As]
+14.1 +12.5 90 +13 +14 тепло 1014.2 1013.6
18 12.07 Ю 3 10 км {морось} 5/0
[Ac und]
+15.3 +11.2 77 +15 +17 тепло 1013.5 1012.8 0.5
21 12.07 Ю 2 10 км ясно +15.6 +10.3 71 +16 +16 тепло 1014.6 1013.8
00 13.07 Ю 2 10 км ясно +14.0 +9.6 75 +14 +14 тепло 1016.5 1015.8 +12.7 +17.1
03 13.07 Ю 3 10 км ясно +11.8 +9.0 83 +10 +10 по сезону 1017.5 1016.8
06 13.07 Ю 1 8000 м дымка ясно +9.9 +8.7 92 +9 +9 по сезону 1017.9 1017.2
09 13.07 Ю 2 4500 м дымка 3/3 180 м
[St]
+8.6 +8.2 97 +7 +7 по сезону 1018.1 1017.4
12 13.07 Ю 1 1200 м в посл. час туман туман 10/10 90 м
[St]
+7.3 +7.3 100 +6 +6 по сезону 1019.0 1018.4 +6.8 +14.0 0.5
15 13.07 нст 1 8000 м дымка 6/6 450 м
[Sc]
+9.5 +7.2 86 +9 +12 по сезону 1019.9 1019.2
18 13.07 В 4 8000 м дымка ясно +10.5 +6.5 76 +8 +11 прохладно 1018.3 1017.6
21 13.07 С 2 10 км 1/0
[Cs]
+10.0 +7.3 83 +9 +9 по сезону 1018.1 1017.4
00 14.07 ЮВ 2 10 км 3/3 450 м
[St]
+9.2 +7.3 88 +7 +7 по сезону 1019.7 1019.0 +7.0 +12.5
03 14.07 Ю 2 10 км ясно +9.1 +6.1 81 +8 +8 по сезону 1020.7 1020.0
06 14.07 ЮЗ 1 10 км ясно +7.8 +6.1 89 +7 +7 по сезону 1021.1 1020.4
09 14.07 штиль 0 9000 м дымка ясно +6.7 +5.8 94 +6 +6 по сезону 1019.9 1019.2
12 14.07 Ю 1 10 км дымка 5/0
[Cs]
+8.2 +7.6 96 +7 +8 по сезону 1020.7 1020.0 +6.0 +9.4
15 14.07 В 3 10 км 3/3 400 м
[St]
+11.6 +8.6 82 +10 +14 по сезону 1021.0 1020.4
18 14.07 СВ 3 10 км 6/6 400 м
[St]
+11.4 +9.4 88 +10 +11 по сезону 1019.3 1018.5
21 14.07 В 3 10 км 4/0
[Ac As]
+10.2 +6.8 79 +8 +8 прохладно 1019.2 1018.5
00 15.07 В 3 10 км 8/0
[Ac As Cs]
+10.8 +7.7 81 +9 +9 по сезону 1020.4 1019.7 +8.2 +11.6
03 15.07 СВ 3 10 км 8/0
[Ac As]
+11.2 +9.4 89 +10 +10 по сезону 1020.6 1020.0
06 15.07 СЗ 1 10 км 8/0
[Cs]
+9.7 +8.5 92 +9 +9 по сезону 1020.1 1019.4
09 15.07 СЗ 3 9000 м дымка 8/0 2000 м
[Ac As]
+10.1 +7.2 82 +8 +8 по сезону 1019.7 1019.0
12 15.07 СВ 1 10 км {дождь} 5/0
[Ac cast]
+11.1 +7.6 79 +11 +12 тепло 1021.3 1020.6 +9.5 +11.5 0.0
15 15.07 З 3 10 км 4/1 1200 м
[Cu hum Ci fib]
+14.1 +7.0 62 +13 +18 тепло 1022.4 1021.7
18 15.07 ЮЗ 3 10 км 1/0
[Ci sp]
+17.1 +3.1 39 +17 +21 тепло 1020.7 1020.0
21 15.07 ЮЗ 3 10 км 4/0
[Ci]
+15.0 +4.1 48 +15 +15 тепло 1021.7 1021.0
00 16.07 ЮЗ 1 10 км ясно +12.6 +4.1 56 +13 +13 тепло 1023.4 1022.8 +10.3 +17.2
03 16.07 З 2 10 км ясно +10.0 +4.9 71 +9 +9 по сезону 1023.8 1023.2
06 16.07 штиль 0 10 км ясно +7.3 +5.3 87 +6 +6 по сезону 1024.0 1023.3
09 16.07 ЮЗ 2 10 км ясно +7.6 +4.7 82 +6 +6 по сезону 1024.2 1023.6
12 16.07 штиль 0 10 км ясно +9.9 +4.6 70 +9 +11 по сезону 1025.5 1024.6 +6.6 +12.8
15 16.07 С 2 10 км ясно +12.1 +8.3 78 +11 +18 по сезону 1026.1 1025.4
18 16.07 С 3 10 км ясно +14.1 +6.5 60 +13 +17 по сезону 1023.8 1023.2
21 16.07 С 4 10 км 1/0
[Ci fib]
+13.9 +6.7 62 +13 +13 тепло 1023.5 1022.8
00 17.07 С 2 10 км ясно +12.7 +8.1 74 +12 +12 тепло 1024.6 1024.0 +9.7 +14.8
03 17.07 С 5 10 км ясно +12.2 +6.1 66 +10 +10 по сезону 1024.6 1024.0
06 17.07 С 5 10 км ясно +11.1 +6.7 74 +8 +8 по сезону 1025.3 1024.6
09 17.07 С 6 10 км 1/0
[Ci fib]
+10.5 +6.5 76 +7 +7 по сезону 1024.6 1024.0
12 17.07 С 6 10 км 1/0
[Ci fib]
+11.0 +6.6 74 +8 +9 по сезону 1024.8 1024.1 +10.1 +12.8
15 17.07 С 5 10 км 5/0
[Cs]
+13.0 +7.5 69 +11 +15 по сезону 1024.2 1023.6
18 17.07 С 4 10 км 9/0
[Cs]
+15.6 +9.1 65 +15 +17 тепло 1021.0 1020.4
21 17.07 С 3 10 км 9/0
[Ac As Cs]
+14.3 +10.7 79 +13 +13 тепло 1019.9 1019.2
00 18.07 С 2 10 км 8/0
[Cs]
+14.0 +9.6 75 +13 +13 тепло 1019.2 1018.5 +11.0 +15.6
03 18.07 С 3 10 км 10/0
[Cs]
+13.5 +9.4 76 +13 +13 тепло 1018.7 1018.0
06 18.07 С 4 10 км 10/0
[Cs]
+12.8 +8.6 76 +11 +11 тепло 1018.6 1018.0
09 18.07 С 4 10 км 10/0
[Ac trans Cs]
+12.4 +9.1 80 +11 +11 тепло 1019.1 1018.4
12 18.07 С 4 10 км 9/0
[Ac und]
+12.0 +9.0 82 +10 +10 по сезону 1020.5 1019.8 +11.4 +14.0
15 18.07 С 3 10 км 9/0
[Ac und]
+12.6 +8.9 78 +11 +14 по сезону 1022.3 1021.6

 

Местоположение метеостанции Буэнос-Айрес аэропорт (Аргентина): широта -34.56 долгота -58.41 высота над уровнем моря 6 м.

В архиве по умолчанию представлена погода в Буэнос-Айресе аэропорт за последнюю неделю. Архивные данные за месяц целиком и за предыдущие месяцы, начиная с января 2011 года, Вы можете получить, выбрав интересующий диапазон дат из раскрывающегося списка и нажав кнопку "Ввод!".


*Определитесь, кто Вы:
робот инопланетянин человек

Внимание! Время в таблицах - всемирное. Для получения местного времени необходимо прибавить поправку, которая равна -3 ч.

Смотрите также архив погоды в соседних городах и на ближайших метеорологических станциях:

Погода в Буэнос-Айресе (Аргентина) (7 км)
Погода в Эсейсе (Аргентина) (30 км)
Погода в Колонии (Уругвай) (55 км)
Погода в Ла-Плате (Аргентина) (64 км)
Погода в Мерседесе (Уругвай) (149 км)
Погода в Гуалегуайчу (Аргентина) (174 км)
Погода в Лас Флоресе (Аргентина) (179 км)
Погода в Мелилье (Уругвай) (199 км)
Погода в Прадо (Уругвай) (205 км)
Погода в Долоресе (Аргентина) (206 км)

Пояснения к столбцам:

Ветер - указаны скорость ветра в м/с - средняя за 10 мин, порывы в срок и между сроками (в фигурных скобках) и направление, откуда дует ветер: С - северный, СВ - северо-восточный, В - восточный, ЮВ - юго-восточный, Ю - южный, ЮЗ - юго-западный, З - западный, СЗ - северо-западный.
Видимость - горизонтальная дальность видимости в метрах или километрах. При видимости от 1 до 10 км при отсутствии осадков обычно наблюдается дымка, при ухудшении видимости до 1 км и менее - туман. В сухую погоду видимость может ухудшаться дымом, пылью или мглою.
Явления - указаны атмосферные явления, наблюдавшиеся в срок или в последний час перед сроком; фигурными скобками обозначены явления, наблюдавшиеся между сроками (за 1-3 часа до срока); квадратными скобками обозначены град или гололедные отложения с указанием их диаметра в мм.
Облачность - указаны через наклонную черту общая и нижняя облачность в баллах и высота нижней границы облаков в метрах; квадратными скобками обозначены формы облаков: Ci - перистые, Cs - перисто-слоистые, Cc - перисто-кучевые, Ac - высококучевые, As - высокослоистые, Sc - слоисто-кучевые, Ns - слоисто-дождевые, Cu - кучевые, Cb - кучево-дождевые. Подробнее классификацию облаков см. в Атласе облаков (PDF).
T - Температура воздуха - температура, измеренная на высоте 2 м над землей.
Td - Температура точки росы - температура, при понижении до которой содержащийся в воздухе водяной пар достигнет насыщения.
f - Относительная влажность воздуха - влажноcть воздуха, измеренная на высоте 2 м над землей.
Te - Эффективная температура - температура, которую ощущает одетый по сезону человек в тени. Характеристика душности погоды. При расчете учитывается влияние влажности воздуха и скорости ветра на теплоощущения человека.
Tes - Эффективная температура на солнце - температура, которую ощущает человек, с поправкой на солнечный нагрев. Характеристика знойности погоды. Зависит от высоты солнца над горизонтом, облачности и скорости ветра. Ночью, в пасмурную погоду, а также при ветре 12 м/с и более поправка равна нулю.
P - Атмосферное давление - приведенное к уровню моря атмосферное давление.
Po - Атмосферное давление - измеренное на уровне метеостанции атмосферное давление.
Tmin - Минимальная температура - минимум температуры воздуха на высоте 2 м над землей.
Tmax - Максимальная температура - максимум температуры воздуха на высоте 2 м над землей.
R - Количество осадков - Количество выпавших осадков за период времени, мм. При наведении курсора мыши на число - период времени, за который выпало указанное количество осадков.
R24 - Количество осадков - Количество выпавших осадков за 24 часа, мм.
S - Снежный покров - Высота снежного покрова, см. При наведении курсора мыши на число - состояние снежного покрова и степень покрытия местности в баллах.